| time (UTC) | temp C | wind direction | speed KPH | gust KPH | rain 1hr cm | rain 24hr cm | rain mn cm | humidity % | barometer mb |
| 20260904162003 | 16 | 240 | 8.0 | 19.3 | 0.00 | 0.00 | 0.00 | 60 | 1016.4 |
| 20260904161502 | 15 | 235 | 6.4 | 19.3 | 0.00 | 0.00 | 0.00 | 61 | 1016.5 |
| 20260904160502 | 15 | 242 | 8.0 | 12.9 | 0.00 | 0.00 | 0.00 | 62 | 1016.5 |
| 20260904160002 | 15 | 236 | 8.0 | 12.9 | 0.00 | 0.00 | 0.00 | 63 | 1016.4 |
| 20260904155503 | 15 | 240 | 8.0 | 16.1 | 0.00 | 0.00 | 0.00 | 63 | 1016.6 |
| 20260904155002 | 15 | 236 | 8.0 | 12.9 | 0.00 | 0.00 | 0.00 | 63 | 1016.5 |
| 20260904154003 | 14 | 240 | 4.8 | 17.7 | 0.00 | 0.00 | 0.00 | 64 | 1016.5 |
| 20260904153502 | 14 | 241 | 4.8 | 12.9 | 0.00 | 0.00 | 0.00 | 65 | 1016.6 |
| 20260904153002 | 14 | 241 | 4.8 | 8.0 | 0.00 | 0.00 | 0.00 | 66 | 1016.6 |
| 20260904152503 | 13 | 241 | 4.8 | 11.3 | 0.00 | 0.00 | 0.00 | 66 | 1016.5 |
| 20260904152003 | 13 | 241 | 4.8 | 11.3 | 0.00 | 0.00 | 0.00 | 67 | 1016.5 |
| 20260904151502 | 13 | 239 | 4.8 | 12.9 | 0.00 | 0.00 | 0.00 | 67 | 1016.6 |
| 20260904151002 | 13 | 235 | 4.8 | 8.0 | 0.00 | 0.00 | 0.00 | 67 | 1016.5 |
| 20260904150503 | 13 | 242 | 3.2 | 12.9 | 0.00 | 0.00 | 0.00 | 68 | 1016.4 |
| 20260904150002 | 13 | 237 | 3.2 | 6.4 | 0.00 | 0.00 | 0.00 | 69 | 1016.3 |
| 20260904145503 | 13 | 238 | 3.2 | 12.9 | 0.00 | 0.00 | 0.00 | 69 | 1016.3 |
| 20260904145002 | 12 | 245 | 3.2 | 8.0 | 0.00 | 0.00 | 0.00 | 71 | 1016.2 |
| 20260904144502 | 12 | 243 | 3.2 | 6.4 | 0.00 | 0.00 | 0.00 | 73 | 1016.2 |
| 20260904144003 | 11 | 241 | 1.6 | 9.7 | 0.00 | 0.00 | 0.00 | 75 | 1016.1 |
| 20260904143502 | 11 | 201 | 0.0 | 4.8 | 0.00 | 0.00 | 0.00 | 76 | 1016.1 |
| 20260904143002 | 11 | 0 | 0.0 | 0.0 | 0.00 | 0.00 | 0.00 | 75 | 1016.0 |
| 20260904142503 | 11 | 0 | 0.0 | 0.0 | 0.00 | 0.00 | 0.00 | 75 | 1016.1 |
| 20260904142002 | 11 | 0 | 0.0 | 0.0 | 0.00 | 0.00 | 0.00 | 75 | 1016.0 |
| 20260904141503 | 10 | 0 | 0.0 | 0.0 | 0.00 | 0.00 | 0.00 | 75 | 1016.0 |
| 20260904141003 | 10 | 0 | 0.0 | 0.0 | 0.00 | 0.00 | 0.00 | 75 | 1016.0 |
| 20260904140502 | 10 | 63 | 0.0 | 1.6 | 0.00 | 0.00 | 0.00 | 74 | 1015.9 |
| 20260904135503 | 11 | 0 | 0.0 | 0.0 | 0.00 | 0.00 | 0.00 | 73 | 1015.8 |
| 20260904135003 | 11 | 0 | 0.0 | 0.0 | 0.00 | 0.00 | 0.00 | 73 | 1015.8 |
| 20260904134502 | 11 | 134 | 0.0 | 1.6 | 0.00 | 0.00 | 0.00 | 73 | 1015.8 |
| 20260904133503 | 11 | 0 | 0.0 | 0.0 | 0.00 | 0.00 | 0.00 | 72 | 1015.7 |
| 20260904133003 | 11 | 0 | 0.0 | 0.0 | 0.00 | 0.00 | 0.00 | 71 | 1015.8 |
| 20260904132502 | 11 | 0 | 0.0 | 0.0 | 0.00 | 0.00 | 0.00 | 71 | 1015.8 |
| 20260904132002 | 11 | 0 | 0.0 | 0.0 | 0.00 | 0.00 | 0.00 | 71 | 1015.9 |
| 20260904131502 | 11 | 0 | 0.0 | 0.0 | 0.00 | 0.00 | 0.00 | 71 | 1015.8 |
| 20260904131003 | 11 | 0 | 0.0 | 0.0 | 0.00 | 0.00 | 0.00 | 71 | 1015.7 |
| 20260904130503 | 11 | 0 | 0.0 | 0.0 | 0.00 | 0.00 | 0.00 | 70 | 1015.7 |
| 20260904125502 | 12 | 159 | 0.0 | 1.6 | 0.00 | 0.00 | 0.00 | 69 | 1015.6 |
| 20260904125002 | 12 | 116 | 0.0 | 1.6 | 0.00 | 0.00 | 0.00 | 69 | 1015.6 |
| 20260904124503 | 12 | 0 | 0.0 | 0.0 | 0.00 | 0.00 | 0.00 | 69 | 1015.6 |
| 20260904124002 | 12 | 0 | 0.0 | 0.0 | 0.00 | 0.00 | 0.00 | 68 | 1015.6 |
| 20260904123003 | 12 | 0 | 0.0 | 0.0 | 0.00 | 0.00 | 0.00 | 68 | 1015.4 |
| 20260904122502 | 12 | 0 | 0.0 | 0.0 | 0.00 | 0.00 | 0.00 | 68 | 1015.5 |
| 20260904122003 | 12 | 129 | 0.0 | 1.6 | 0.00 | 0.00 | 0.00 | 68 | 1015.4 |
| 20260904121503 | 12 | 0 | 0.0 | 0.0 | 0.00 | 0.00 | 0.00 | 68 | 1015.4 |
| 20260904121002 | 12 | 131 | 0.0 | 1.6 | 0.00 | 0.00 | 0.00 | 67 | 1015.4 |
| 20260904115502 | 13 | 205 | 0.0 | 1.6 | 0.00 | 0.00 | 0.00 | 66 | 1015.5 |
| 20260904114003 | 13 | 0 | 0.0 | 0.0 | 0.00 | 0.00 | 0.00 | 66 | 1015.5 |
| 20260904113502 | 13 | 243 | 0.0 | 1.6 | 0.00 | 0.00 | 0.00 | 66 | 1015.5 |
| 20260904113003 | 13 | 244 | 1.6 | 3.2 | 0.00 | 0.00 | 0.00 | 66 | 1015.6 |
| 20260904112503 | 13 | 242 | 1.6 | 3.2 | 0.00 | 0.00 | 0.00 | 66 | 1015.5 |
| 20260904111503 | 13 | 245 | 1.6 | 4.8 | 0.00 | 0.00 | 0.00 | 66 | 1015.4 |
| 20260904110503 | 13 | 224 | 0.0 | 3.2 | 0.00 | 0.00 | 0.00 | 66 | 1015.4 |
| 20260904110003 | 13 | 201 | 0.0 | 1.6 | 0.00 | 0.00 | 0.00 | 66 | 1015.4 |
| 20260904105502 | 13 | 0 | 0.0 | 0.0 | 0.00 | 0.00 | 0.00 | 66 | 1015.5 |
| 20260904103502 | 13 | 0 | 0.0 | 0.0 | 0.00 | 0.00 | 0.00 | 64 | 1015.4 |
| 20260904103003 | 13 | 0 | 0.0 | 0.0 | 0.00 | 0.00 | 0.00 | 64 | 1015.4 |
| 20260904102503 | 13 | 166 | 0.0 | 1.6 | 0.00 | 0.00 | 0.00 | 63 | 1015.2 |
| 20260904102002 | 13 | 0 | 0.0 | 0.0 | 0.00 | 0.00 | 0.00 | 64 | 1015.3 |
| 20260904101503 | 13 | 0 | 0.0 | 0.0 | 0.00 | 0.00 | 0.00 | 63 | 1015.3 |
| 20260904101003 | 13 | 0 | 0.0 | 0.0 | 0.00 | 0.00 | 0.00 | 63 | 1015.3 |
| 20260904100503 | 13 | 0 | 0.0 | 0.0 | 0.00 | 0.00 | 0.00 | 63 | 1015.4 |
| 20260904100003 | 14 | 0 | 0.0 | 0.0 | 0.00 | 0.00 | 0.00 | 62 | 1015.3 |
| 20260904095502 | 14 | 0 | 0.0 | 0.0 | 0.00 | 0.00 | 0.00 | 62 | 1015.4 |
| 20260904095003 | 14 | 0 | 0.0 | 0.0 | 0.00 | 0.00 | 0.00 | 62 | 1015.4 |
| 20260904094503 | 14 | 0 | 0.0 | 0.0 | 0.00 | 0.00 | 0.00 | 61 | 1015.3 |
| 20260904094002 | 14 | 166 | 0.0 | 1.6 | 0.00 | 0.00 | 0.00 | 61 | 1015.4 |
| 20260904093503 | 14 | 169 | 0.0 | 1.6 | 0.00 | 0.00 | 0.00 | 61 | 1015.4 |
| 20260904091502 | 14 | 0 | 0.0 | 0.0 | 0.00 | 0.00 | 0.00 | 61 | 1015.4 |
| 20260904090004 | 15 | 0 | 0.0 | 0.0 | 0.00 | 0.00 | 0.00 | 59 | 1015.4 |
| 20260904085503 | 15 | 161 | 0.0 | 1.6 | 0.00 | 0.00 | 0.00 | 59 | 1015.5 |
| 20260904085003 | 15 | 160 | 0.0 | 1.6 | 0.00 | 0.00 | 0.00 | 59 | 1015.5 |
| 20260904084503 | 15 | 159 | 0.0 | 1.6 | 0.00 | 0.00 | 0.00 | 58 | 1015.6 |
| 20260904083503 | 15 | 0 | 0.0 | 0.0 | 0.00 | 0.00 | 0.00 | 57 | 1015.6 |
| 20260904083002 | 16 | 0 | 0.0 | 0.0 | 0.00 | 0.00 | 0.00 | 57 | 1015.7 |
| 20260904082503 | 16 | 135 | 0.0 | 1.6 | 0.00 | 0.00 | 0.00 | 56 | 1015.8 |
| 20260904082003 | 16 | 143 | 0.0 | 1.6 | 0.00 | 0.00 | 0.00 | 56 | 1015.9 |
| 20260904081503 | 16 | 160 | 0.0 | 1.6 | 0.00 | 0.00 | 0.00 | 54 | 1015.7 |
| 20260904081003 | 16 | 0 | 0.0 | 0.0 | 0.00 | 0.00 | 0.00 | 54 | 1015.7 |
| 20260904080503 | 16 | 164 | 1.6 | 1.6 | 0.00 | 0.00 | 0.00 | 54 | 1015.7 |
| 20260904080003 | 16 | 177 | 1.6 | 4.8 | 0.00 | 0.00 | 0.00 | 54 | 1015.7 |
| 20260904075503 | 16 | 217 | 3.2 | 3.2 | 0.00 | 0.00 | 0.00 | 54 | 1015.6 |
| 20260904075003 | 16 | 167 | 4.8 | 6.4 | 0.00 | 0.00 | 0.00 | 53 | 1015.6 |
| 20260904074503 | 16 | 164 | 4.8 | 12.9 | 0.00 | 0.00 | 0.00 | 53 | 1015.6 |
| 20260904074003 | 16 | 167 | 6.4 | 8.0 | 0.00 | 0.00 | 0.00 | 54 | 1015.6 |
| 20260904073003 | 16 | 145 | 6.4 | 11.3 | 0.00 | 0.00 | 0.00 | 54 | 1015.7 |
| 20260904072502 | 16 | 153 | 6.4 | 11.3 | 0.00 | 0.00 | 0.00 | 54 | 1015.6 |
| 20260904072003 | 16 | 147 | 4.8 | 11.3 | 0.00 | 0.00 | 0.00 | 54 | 1015.6 |
| 20260904071503 | 16 | 150 | 3.2 | 16.1 | 0.00 | 0.00 | 0.00 | 55 | 1015.6 |
| 20260904071003 | 16 | 163 | 6.4 | 8.0 | 0.00 | 0.00 | 0.00 | 54 | 1015.5 |
| 20260904070503 | 16 | 156 | 6.4 | 14.5 | 0.00 | 0.00 | 0.00 | 56 | 1015.5 |
| 20260904070004 | 15 | 152 | 3.2 | 14.5 | 0.00 | 0.00 | 0.00 | 57 | 1015.6 |
| 20260904065502 | 15 | 153 | 0.0 | 14.5 | 0.00 | 0.00 | 0.00 | 57 | 1015.6 |
| 20260904064503 | 15 | 172 | 0.0 | 3.2 | 0.00 | 0.00 | 0.00 | 56 | 1015.5 |
| 20260904064003 | 15 | 192 | 0.0 | 1.6 | 0.00 | 0.00 | 0.00 | 55 | 1015.5 |
| 20260904063502 | 15 | 209 | 0.0 | 1.6 | 0.00 | 0.00 | 0.00 | 55 | 1015.5 |
| 20260904063003 | 15 | 227 | 0.0 | 1.6 | 0.00 | 0.00 | 0.00 | 55 | 1015.4 |
| 20260904062503 | 15 | 0 | 0.0 | 0.0 | 0.00 | 0.00 | 0.00 | 54 | 1015.3 |
| 20260904062003 | 15 | 0 | 0.0 | 0.0 | 0.00 | 0.00 | 0.00 | 55 | 1015.5 |
| 20260904061502 | 15 | 0 | 0.0 | 0.0 | 0.00 | 0.00 | 0.00 | 54 | 1015.4 |
| 20260904061003 | 15 | 0 | 0.0 | 0.0 | 0.00 | 0.00 | 0.00 | 53 | 1015.3 |
| 20260904060503 | 15 | 0 | 0.0 | 0.0 | 0.00 | 0.00 | 0.00 | 53 | 1015.3 |
| 20260904060003 | 15 | 0 | 0.0 | 0.0 | 0.00 | 0.00 | 0.00 | 53 | 1015.3 |
| 20260904055503 | 15 | 232 | 0.0 | 1.6 | 0.00 | 0.00 | 0.00 | 53 | 1015.2 |
| 20260904055003 | 15 | 232 | 0.0 | 1.6 | 0.00 | 0.00 | 0.00 | 52 | 1015.2 |
| 20260904054503 | 15 | 215 | 0.0 | 3.2 | 0.00 | 0.00 | 0.00 | 53 | 1015.2 |
| 20260904054003 | 15 | 0 | 0.0 | 0.0 | 0.00 | 0.00 | 0.00 | 53 | 1015.2 |
| 20260904053503 | 15 | 95 | 0.0 | 1.6 | 0.00 | 0.00 | 0.00 | 53 | 1015.2 |
| 20260904053003 | 15 | 0 | 0.0 | 0.0 | 0.00 | 0.00 | 0.00 | 52 | 1015.2 |
| 20260904052502 | 15 | 95 | 0.0 | 1.6 | 0.00 | 0.00 | 0.00 | 52 | 1015.3 |
| 20260904052002 | 15 | 0 | 0.0 | 0.0 | 0.00 | 0.00 | 0.00 | 51 | 1015.3 |
| 20260904051503 | 16 | 148 | 0.0 | 3.2 | 0.00 | 0.00 | 0.00 | 52 | 1015.3 |
| 20260904051003 | 16 | 137 | 0.0 | 3.2 | 0.00 | 0.00 | 0.00 | 52 | 1015.4 |
| 20260904050503 | 16 | 133 | 1.6 | 3.2 | 0.00 | 0.00 | 0.00 | 52 | 1015.4 |
| 20260904050004 | 16 | 167 | 1.6 | 3.2 | 0.00 | 0.00 | 0.00 | 52 | 1015.4 |
| 20260904045503 | 16 | 120 | 0.0 | 4.8 | 0.00 | 0.00 | 0.00 | 52 | 1015.4 |
| 20260904045003 | 16 | 144 | 0.0 | 3.2 | 0.00 | 0.00 | 0.00 | 51 | 1015.4 |
| 20260904044503 | 16 | 143 | 0.0 | 3.2 | 0.00 | 0.00 | 0.00 | 51 | 1015.3 |
| 20260904044003 | 16 | 150 | 1.6 | 3.2 | 0.00 | 0.00 | 0.00 | 51 | 1015.3 |
| 20260904043503 | 16 | 147 | 1.6 | 3.2 | 0.00 | 0.00 | 0.00 | 51 | 1015.3 |
| 20260904043004 | 16 | 139 | 1.6 | 3.2 | 0.00 | 0.00 | 0.00 | 51 | 1015.2 |
| 20260904042503 | 16 | 146 | 0.0 | 3.2 | 0.00 | 0.00 | 0.00 | 51 | 1015.4 |
| 20260904042003 | 16 | 154 | 1.6 | 1.6 | 0.00 | 0.00 | 0.00 | 50 | 1015.3 |
| 20260904041502 | 16 | 150 | 1.6 | 4.8 | 0.00 | 0.00 | 0.00 | 51 | 1015.4 |
| 20260904041003 | 17 | 137 | 0.0 | 3.2 | 0.00 | 0.00 | 0.00 | 50 | 1015.3 |
| 20260904040503 | 17 | 138 | 1.6 | 3.2 | 0.00 | 0.00 | 0.00 | 50 | 1015.2 |
| 20260904040003 | 17 | 146 | 3.2 | 3.2 | 0.00 | 0.00 | 0.00 | 50 | 1015.2 |
| 20260904035503 | 17 | 144 | 3.2 | 4.8 | 0.00 | 0.00 | 0.00 | 50 | 1015.2 |
| 20260904035003 | 17 | 141 | 3.2 | 6.4 | 0.00 | 0.00 | 0.00 | 50 | 1015.2 |
| 20260904034004 | 17 | 146 | 3.2 | 6.4 | 0.00 | 0.00 | 0.00 | 49 | 1015.2 |
| 20260904033503 | 17 | 152 | 1.6 | 4.8 | 0.00 | 0.00 | 0.00 | 49 | 1015.3 |
| 20260904033003 | 17 | 154 | 1.6 | 3.2 | 0.00 | 0.00 | 0.00 | 48 | 1015.2 |
| 20260904032003 | 17 | 163 | 3.2 | 4.8 | 0.00 | 0.00 | 0.00 | 48 | 1015.2 |
| 20260904031004 | 17 | 156 | 3.2 | 8.0 | 0.00 | 0.00 | 0.00 | 47 | 1015.1 |
| 20260904030503 | 17 | 163 | 1.6 | 4.8 | 0.00 | 0.00 | 0.00 | 46 | 1015.2 |
| 20260904030003 | 17 | 160 | 1.6 | 6.4 | 0.00 | 0.00 | 0.00 | 45 | 1015.2 |
| 20260904025003 | 18 | 174 | 3.2 | 3.2 | 0.00 | 0.00 | 0.00 | 45 | 1015.2 |
| 20260904024003 | 18 | 174 | 4.8 | 4.8 | 0.00 | 0.00 | 0.00 | 45 | 1015.2 |
| 20260904023504 | 18 | 181 | 6.4 | 8.0 | 0.00 | 0.00 | 0.00 | 45 | 1015.2 |
| 20260904023003 | 18 | 181 | 6.4 | 14.5 | 0.00 | 0.00 | 0.00 | 45 | 1015.2 |
| 20260904022502 | 18 | 191 | 6.4 | 9.7 | 0.00 | 0.00 | 0.00 | 45 | 1015.2 |
| 20260904021003 | 18 | 209 | 8.0 | 14.5 | 0.00 | 0.00 | 0.00 | 44 | 1015.2 |
| 20260904020004 | 19 | 219 | 9.7 | 14.5 | 0.00 | 0.00 | 0.00 | 42 | 1015.1 |
| 20260904015503 | 19 | 235 | 9.7 | 19.3 | 0.00 | 0.00 | 0.00 | 41 | 1015.2 |
| 20260904015003 | 19 | 229 | 11.3 | 17.7 | 0.00 | 0.00 | 0.00 | 41 | 1015.2 |
| 20260904014003 | 20 | 232 | 11.3 | 22.5 | 0.00 | 0.00 | 0.00 | 39 | 1015.1 |
| 20260904013503 | 20 | 220 | 11.3 | 16.1 | 0.00 | 0.00 | 0.00 | 38 | 1015.2 |
| 20260904013004 | 20 | 226 | 12.9 | 11.3 | 0.00 | 0.00 | 0.00 | 38 | 1015.3 |
| 20260904012503 | 20 | 235 | 12.9 | 20.9 | 0.00 | 0.00 | 0.00 | 37 | 1015.2 |
| 20260904012003 | 20 | 233 | 12.9 | 20.9 | 0.00 | 0.00 | 0.00 | 37 | 1015.3 |
| 20260904011503 | 21 | 228 | 12.9 | 20.9 | 0.00 | 0.00 | 0.00 | 37 | 1015.2 |
| 20260904011004 | 21 | 218 | 14.5 | 19.3 | 0.00 | 0.00 | 0.00 | 37 | 1015.2 |
| 20260904010503 | 21 | 214 | 14.5 | 16.1 | 0.00 | 0.00 | 0.00 | 37 | 1015.3 |
| 20260904005503 | 21 | 219 | 14.5 | 20.9 | 0.00 | 0.00 | 0.00 | 36 | 1015.3 |
| 20260904005003 | 21 | 220 | 14.5 | 20.9 | 0.00 | 0.00 | 0.00 | 35 | 1015.3 |
| 20260904003503 | 21 | 212 | 14.5 | 19.3 | 0.00 | 0.00 | 0.00 | 34 | 1015.3 |
| 20260904003003 | 21 | 218 | 14.5 | 24.1 | 0.00 | 0.00 | 0.00 | 34 | 1015.3 |
| 20260904002503 | 21 | 212 | 12.9 | 22.5 | 0.00 | 0.00 | 0.00 | 34 | 1015.3 |
| 20260904001504 | 21 | 210 | 14.5 | 17.7 | 0.00 | 0.00 | 0.00 | 34 | 1015.4 |
| 20260904001003 | 21 | 216 | 16.1 | 25.7 | 0.00 | 0.00 | 0.00 | 34 | 1015.4 |
| 20260904000503 | 21 | 222 | 16.1 | 25.7 | 0.00 | 0.00 | 0.00 | 35 | 1015.4 |
| 20260904000003 | 21 | 222 | 16.1 | 25.7 | 0.00 | 0.00 | 0.00 | 35 | 1015.3 |
| 20260903235503 | 21 | 234 | 16.1 | 29.0 | 0.00 | 0.00 | 0.00 | 35 | 1015.3 |
| 20260903235004 | 21 | 221 | 16.1 | 22.5 | 0.00 | 0.00 | 0.00 | 35 | 1015.4 |
| 20260903234503 | 21 | 208 | 16.1 | 27.4 | 0.00 | 0.00 | 0.00 | 36 | 1015.4 |
| 20260903233003 | 21 | 227 | 17.7 | 27.4 | 0.00 | 0.00 | 0.00 | 35 | 1015.4 |
| 20260903231504 | 21 | 231 | 17.7 | 30.6 | 0.00 | 0.00 | 0.00 | 36 | 1015.4 |
| 20260903230503 | 22 | 226 | 17.7 | 30.6 | 0.00 | 0.00 | 0.00 | 37 | 1015.5 |
| 20260903230003 | 22 | 206 | 16.1 | 30.6 | 0.00 | 0.00 | 0.00 | 37 | 1015.7 |
| 20260903225503 | 22 | 223 | 16.1 | 24.1 | 0.00 | 0.00 | 0.00 | 36 | 1015.7 |
| 20260903225004 | 22 | 230 | 16.1 | 29.0 | 0.00 | 0.00 | 0.00 | 37 | 1015.7 |
| 20260903224503 | 22 | 226 | 14.5 | 29.0 | 0.00 | 0.00 | 0.00 | 38 | 1015.8 |
| 20260903224003 | 22 | 233 | 14.5 | 22.5 | 0.00 | 0.00 | 0.00 | 38 | 1015.8 |
| 20260903223503 | 22 | 230 | 14.5 | 25.7 | 0.00 | 0.00 | 0.00 | 39 | 1015.9 |
| 20260903223004 | 22 | 227 | 14.5 | 22.5 | 0.00 | 0.00 | 0.00 | 39 | 1015.9 |
| 20260903222003 | 22 | 228 | 16.1 | 25.7 | 0.00 | 0.00 | 0.00 | 39 | 1016.0 |
| 20260903221503 | 22 | 228 | 14.5 | 29.0 | 0.00 | 0.00 | 0.00 | 40 | 1016.0 |
| 20260903221004 | 22 | 230 | 14.5 | 25.7 | 0.00 | 0.00 | 0.00 | 39 | 1016.0 |
| 20260903220503 | 22 | 233 | 12.9 | 27.4 | 0.00 | 0.00 | 0.00 | 38 | 1016.0 |
| 20260903220003 | 23 | 220 | 12.9 | 20.9 | 0.00 | 0.00 | 0.00 | 39 | 1016.1 |
| 20260903214503 | 23 | 204 | 4.8 | 9.7 | 0.00 | 0.00 | 0.00 | 41 | 1016.3 |
| 20260903214004 | 23 | 168 | 6.4 | 12.9 | 0.00 | 0.00 | 0.00 | 41 | 1016.3 |
| 20260903213004 | 22 | 230 | 6.4 | 9.7 | 0.00 | 0.00 | 0.00 | 41 | 1016.4 |
| 20260903212502 | 22 | 240 | 8.0 | 11.3 | 0.00 | 0.00 | 0.00 | 42 | 1016.3 |
| 20260903212002 | 22 | 203 | 8.0 | 17.7 | 0.00 | 0.00 | 0.00 | 42 | 1016.4 |
| 20260903211503 | 22 | 229 | 9.7 | 19.3 | 0.00 | 0.00 | 0.00 | 42 | 1016.4 |
| 20260903211003 | 22 | 206 | 12.9 | 16.1 | 0.00 | 0.00 | 0.00 | 42 | 1016.4 |
| 20260903210502 | 22 | 215 | 14.5 | 22.5 | 0.00 | 0.00 | 0.00 | 43 | 1016.4 |
| 20260903210003 | 22 | 226 | 14.5 | 24.1 | 0.00 | 0.00 | 0.00 | 43 | 1016.3 |
| 20260903205502 | 22 | 194 | 14.5 | 25.7 | 0.00 | 0.00 | 0.00 | 44 | 1016.3 |
| 20260903205002 | 21 | 224 | 14.5 | 27.4 | 0.00 | 0.00 | 0.00 | 45 | 1016.2 |
| 20260903204502 | 21 | 233 | 17.7 | 27.4 | 0.00 | 0.00 | 0.00 | 47 | 1016.3 |
| 20260903204002 | 20 | 232 | 17.7 | 25.7 | 0.00 | 0.00 | 0.00 | 48 | 1016.3 |
| 20260903203502 | 20 | 235 | 16.1 | 25.7 | 0.00 | 0.00 | 0.00 | 48 | 1016.2 |
| 20260903202502 | 20 | 236 | 17.7 | 30.6 | 0.00 | 0.00 | 0.00 | 49 | 1016.4 |
| 20260903202002 | 20 | 231 | 20.9 | 29.0 | 0.00 | 0.00 | 0.00 | 50 | 1016.5 |
| 20260903201502 | 20 | 241 | 20.9 | 32.2 | 0.00 | 0.00 | 0.00 | 50 | 1016.4 |
| 20260903201002 | 20 | 236 | 19.3 | 35.4 | 0.00 | 0.00 | 0.00 | 50 | 1016.5 |
| 20260903200502 | 20 | 239 | 20.9 | 27.4 | 0.00 | 0.00 | 0.00 | 50 | 1016.6 |
| 20260903200002 | 20 | 234 | 19.3 | 29.0 | 0.00 | 0.00 | 0.00 | 50 | 1016.6 |
| 20260903195503 | 20 | 241 | 17.7 | 30.6 | 0.00 | 0.00 | 0.00 | 51 | 1016.7 |
| 20260903195003 | 20 | 243 | 17.7 | 22.5 | 0.00 | 0.00 | 0.00 | 52 | 1016.8 |
| 20260903194502 | 19 | 241 | 19.3 | 33.8 | 0.00 | 0.00 | 0.00 | 53 | 1016.6 |
| 20260903194002 | 19 | 241 | 20.9 | 29.0 | 0.00 | 0.00 | 0.00 | 53 | 1016.7 |
| 20260903193503 | 19 | 238 | 19.3 | 32.2 | 0.00 | 0.00 | 0.00 | 53 | 1016.8 |
| 20260903193002 | 19 | 238 | 19.3 | 29.0 | 0.00 | 0.00 | 0.00 | 52 | 1016.9 |
| 20260903192502 | 19 | 235 | 20.9 | 29.0 | 0.00 | 0.00 | 0.00 | 52 | 1016.9 |
| 20260903192002 | 19 | 235 | 19.3 | 30.6 | 0.00 | 0.00 | 0.00 | 51 | 1016.8 |
| 20260903191502 | 19 | 235 | 17.7 | 29.0 | 0.00 | 0.00 | 0.00 | 49 | 1016.8 |
| 20260903191003 | 19 | 236 | 17.7 | 27.4 | 0.00 | 0.00 | 0.00 | 52 | 1017.1 |
| 20260903190502 | 19 | 235 | 19.3 | 27.4 | 0.00 | 0.00 | 0.00 | 52 | 1017.0 |
| 20260903190003 | 18 | 236 | 20.9 | 29.0 | 0.00 | 0.00 | 0.00 | 53 | 1017.2 |
| 20260903185503 | 18 | 237 | 19.3 | 27.4 | 0.00 | 0.00 | 0.00 | 51 | 1017.1 |
| 20260903185002 | 18 | 237 | 17.7 | 30.6 | 0.00 | 0.00 | 0.00 | 54 | 1017.3 |
| 20260903184503 | 18 | 233 | 17.7 | 29.0 | 0.00 | 0.00 | 0.00 | 53 | 1017.4 |
| 20260903184002 | 18 | 237 | 17.7 | 32.2 | 0.00 | 0.00 | 0.00 | 52 | 1017.3 |
| 20260903183502 | 18 | 234 | 17.7 | 27.4 | 0.00 | 0.00 | 0.00 | 53 | 1017.4 |
| 20260903183003 | 18 | 237 | 16.1 | 24.1 | 0.00 | 0.00 | 0.00 | 53 | 1017.5 |
| 20260903182502 | 18 | 239 | 14.5 | 29.0 | 0.00 | 0.00 | 0.00 | 52 | 1017.5 |
| 20260903182002 | 18 | 233 | 16.1 | 25.7 | 0.00 | 0.00 | 0.00 | 54 | 1017.5 |
| 20260903181502 | 18 | 238 | 14.5 | 24.1 | 0.00 | 0.00 | 0.00 | 55 | 1017.6 |
| 20260903181003 | 17 | 235 | 16.1 | 24.1 | 0.00 | 0.00 | 0.00 | 56 | 1017.6 |
| 20260903180502 | 17 | 232 | 16.1 | 22.5 | 0.00 | 0.00 | 0.00 | 56 | 1017.6 |
| 20260903180003 | 17 | 236 | 14.5 | 29.0 | 0.00 | 0.00 | 0.00 | 56 | 1017.7 |
| 20260903175502 | 17 | 238 | 11.3 | 24.1 | 0.00 | 0.00 | 0.00 | 58 | 1017.8 |
| 20260903175002 | 17 | 239 | 11.3 | 25.7 | 0.00 | 0.00 | 0.00 | 60 | 1017.9 |
| 20260903174503 | 17 | 239 | 11.3 | 22.5 | 0.00 | 0.00 | 0.00 | 60 | 1017.9 |
| 20260903174002 | 17 | 245 | 11.3 | 22.5 | 0.00 | 0.00 | 0.00 | 60 | 1017.8 |
| 20260903173503 | 16 | 247 | 12.9 | 22.5 | 0.00 | 0.00 | 0.00 | 61 | 1017.9 |
| 20260903173002 | 16 | 242 | 12.9 | 20.9 | 0.00 | 0.00 | 0.00 | 61 | 1018.0 |
| 20260903172003 | 16 | 242 | 8.0 | 19.3 | 0.00 | 0.00 | 0.00 | 61 | 1018.1 |
| 20260903171502 | 16 | 252 | 8.0 | 16.1 | 0.00 | 0.00 | 0.00 | 61 | 1018.1 |
| 20260903171002 | 16 | 242 | 9.7 | 12.9 | 0.00 | 0.00 | 0.00 | 62 | 1018.2 |
| 20260903170502 | 16 | 243 | 6.4 | 16.1 | 0.00 | 0.00 | 0.00 | 61 | 1018.1 |
| 20260903170002 | 16 | 245 | 4.8 | 17.7 | 0.00 | 0.00 | 0.00 | 62 | 1018.1 |
| 20260903165502 | 16 | 245 | 4.8 | 14.5 | 0.00 | 0.00 | 0.00 | 63 | 1018.1 |
| 20260903164502 | 15 | 235 | 4.8 | 16.1 | 0.00 | 0.00 | 0.00 | 63 | 1018.0 |
| 20260903164002 | 15 | 242 | 3.2 | 14.5 | 0.00 | 0.00 | 0.00 | 64 | 1018.1 |
| 20260903163502 | 15 | 245 | 3.2 | 6.4 | 0.00 | 0.00 | 0.00 | 64 | 1018.0 |
| 20260903162502 | 15 | 244 | 4.8 | 8.0 | 0.00 | 0.00 | 0.00 | 66 | 1018.1 |